Southern Junior High School, Massachusetts, United States
Lat: 42.38N, Lon: 71.1W
Wx Zone: MAZ014
Local Info
Past Weather Observations for Today

NOTE: This archive is for the closest National Weather Service station to Southern Junior High School. Information may differ from the station used for current weather conditions.

Click here for Long-term Archive

Time Weather Temperature Dewpoint Humidity Pressure Winds Precip Visibility
20:54
Mostly Cloudy
75°F / 24°C 64°F / 18°C 69% 30.01 in
(1016 mb)
SSE 5.8 mph
(SSE 9 kph)
- 10SM
19:54
Mostly Cloudy
79°F / 26°C 63°F / 17°C 58% 30.01 in
(1016 mb)
NW 5.8 mph
(NW 9 kph)
- 10SM
18:54
Mostly Cloudy
82°F / 28°C 61°F / 16°C 48% 30.01 in
(1016 mb)
W 5.8 mph
(W 9 kph)
- 10SM
17:54
Mostly Cloudy
82°F / 28°C 59°F / 15°C 45% 30.01 in
(1016 mb)
W 10.4 mph
(W 17 kph)
- 10SM
16:54
Mostly Cloudy
84°F / 29°C 59°F / 15°C 43% 30.01 in
(1016 mb)
WNW 8.1 mph
(WNW 13 kph)
- 10SM
15:54
Mostly Cloudy
86°F / 30°C 57°F / 14°C 38% 29.98 in
(1015 mb)
WNW 9.2 mph
(WNW 15 kph)
- 10SM
14:54
Mostly Cloudy
86°F / 30°C 59°F / 15°C 40% 30.01 in
(1016 mb)
W 11.5 mph
(W 19 kph)
- 10SM
13:54
Mostly Cloudy
88°F / 31°C 59°F / 15°C 38% 30.01 in
(1016 mb)
SSW 11.5 mph
(SSW 19 kph)
- 10SM
12:54
Mostly Cloudy
88°F / 31°C 61°F / 16°C 40% 30.04 in
(1017 mb)
SSW 6.9 mph
(SSW 11 kph)
- 10SM
11:54
Mostly Cloudy
86°F / 30°C 61°F / 16°C 43% 30.04 in
(1017 mb)
W 9.2 mph
(W 15 kph)
- 10SM
10:54
Mostly Cloudy
82°F / 28°C 61°F / 16°C 48% 30.06 in
(1018 mb)
W 8.1 mph
(W 13 kph)
- 10SM
09:54
Partly Cloudy
82°F / 28°C 63°F / 17°C 51% 30.06 in
(1018 mb)
WNW 5.8 mph
(WNW 9 kph)
- 10SM
08:54
Partly Cloudy
77°F / 25°C 63°F / 17°C 61% 30.06 in
(1018 mb)
W 5.8 mph
(W 9 kph)
- 10SM
07:54
Partly Cloudy
73°F / 23°C 64°F / 18°C 74% 30.06 in
(1018 mb)
SW 8.1 mph
(SW 13 kph)
- 10SM
06:54
Mostly Cloudy
72°F / 22°C 63°F / 17°C 73% 30.06 in
(1018 mb)
SW 6.9 mph
(SW 11 kph)
- 10SM
05:54
Partly Cloudy
70°F / 21°C 63°F / 17°C 78% 30.06 in
(1018 mb)
SSW 11.5 mph
(SSW 19 kph)
- 10SM
04:54
Mostly Cloudy
70°F / 21°C 63°F / 17°C 78% 30.06 in
(1018 mb)
SSW 10.4 mph
(SSW 17 kph)
- 10SM
03:54
Mostly Cloudy
70°F / 21°C 61°F / 16°C 73% 30.06 in
(1018 mb)
SSW 10.4 mph
(SSW 17 kph)
- 10SM
02:54
Mostly Cloudy
70°F / 21°C 61°F / 16°C 73% 30.06 in
(1018 mb)
SSW 12.7 mph
(SSW 20 kph)
- 10SM
01:54
Mostly Cloudy
72°F / 22°C 61°F / 16°C 69% 30.06 in
(1018 mb)
SSW 15 mph
(SSW 24 kph)
- 10SM
00:54
Mostly Cloudy
72°F / 22°C 61°F / 16°C 69% 30.06 in
(1018 mb)
SSW 13.8 mph
(SSW 22 kph)
- 10SM
Time Weather Temperature Dewpoint Humidity Pressure Winds Precip Visibility


Weather for websites

WeatherForYou.com, LLC is not responsible for any damages or problems caused by this service. Current weather conditions are obtained from the closest station including government and personal stations which may have varying degrees of accuracy. Weather forecasts are derived from the NOAA NDFD. Like all things, this site belongs to Jesus Christ... He just trusts us to maintain it. If you have any questions or comments email webmaster@weatherforyou.com

Copyright © 2015, WeatherForYou.com LLC. All rights reserved.